Location: Bonneuil
(46.1010°N, 2.9693°E)
Time: 01:17:07
(UTC+00:00)

ISS - Pass Details

Date: 07 March 2021
Orbit: 418 x 422 km, 51.6° (Epoch: 10 April)

Event Time Altitude Azimuth Distance (km) Brightness Sun altitude
Exits shadow 05:28:16 10° 298° (WNW) 1,519 -1.4 -9.1°
Reaches altitude 10° 05:28:18 10° 298° (WNW) 1,500 -1.5 -9.1°
Maximum altitude 05:31:41 84° 25° (NNE) 425 -3.7 -8.5°
Drops below altitude 10° 05:35:02 10° 116° (ESE) 1,495 0.2 -7.9°
Sets 05:37:08 0° 117° (ESE) 2,356 1.3 -7.5°
